Flag for Germany Weather past 2 weeks in Wittenberge, Mecklenburg-Western Pomerania, Germany

Now
63 °F

Scattered clouds.


Feels Like: 63 °F
Forecast: 53 / 66 °F
Wind: 6 mph from Southwest

Location: Marnitz

Current Time: Aug 22, 2014 at 12:43:18 PM

Latest Report: Aug 22, 2014 at 12:00 PM


Visibility: 22 mi

Pressure: 29.88 "Hg

Humidity: 52%

Dew point: 45 °F

Location of WittenbergeLocation

Historic Weather in Wittenberge — Graph

°F

Wittenberge temperature yesterday

Maximum temperature yesterday: 65 °F (at 4:00 PM)
Minimum temperature yesterday: 48 °F (at 5:00 AM)
Average temperature yesterday: 55 °F

Past Weeks' High & Low Weather Summary

 TemperatureHumidityPressure
High77 °F (Aug 8, 6:00 PM)97% (Aug 8, 5:00 AM)29.98 "Hg (Aug 8, 5:00 AM)
Low48 °F (Aug 21, 5:00 AM)40% (Aug 11, 5:00 PM)29.50 "Hg (Aug 18, 2:00 PM)
Average61 °F75%29.81 "Hg
* Reported Aug 7 11:00 AM — Aug 22 11:00 AM, Wittenberge, Weather by CustomWeather, © 2014

Note: Actual official high and low records may vary slightly from our data, if they occured in-between our weather recording intervals... More about our weather records

Advertising

Wittenberge weather history for previous 24 hours

 ConditionsComfort  
Time TempWeatherWind HumidityBarometerVisibility
11:00 AM
Aug 22
61 °FPartly sunny.5 mph63%29.88 "Hg22 mi
10:00 AM60 °FOvercast.2 mph67%29.88 "Hg19 mi
9:00 AM55 °FOvercast.3 mph76%29.89 "Hg16 mi
8:00 AM53 °FOvercast.3 mph77%29.89 "Hg14 mi
7:00 AM52 °FOvercast.2 mph77%29.90 "Hg12 mi
6:00 AM51 °FOvercast.3 mph80%29.90 "Hg13 mi
5:00 AM50 °FClear.3 mph81%29.91 "Hg12 mi
4:00 AM51 °FPassing clouds.3 mph80%29.92 "Hg12 mi
3:00 AM51 °FOvercast.2 mph79%29.93 "Hg12 mi
2:00 AM53 °FPassing clouds.3 mph76%29.94 "Hg12 mi
1:00 AM53 °FPassing clouds.3 mph76%29.95 "Hg13 mi
12:00 AM54 °FClear.3 mph73%29.95 "Hg15 mi
11:00 PM
Aug 21
53 °FPassing clouds.2 mph76%29.95 "Hg19 mi
10:00 PM52 °FPassing clouds.2 mph79%29.95 "Hg25 mi
9:00 PM53 °FPassing clouds.2 mph76%29.95 "Hg12 mi
8:00 PM59 °FPassing clouds.2 mph61%29.94 "Hg28 mi
7:00 PM62 °FPartly sunny.3 mph54%29.94 "Hg22 mi
6:00 PM63 °FPassing clouds.5 mph49%29.95 "Hg28 mi
5:00 PM64 °FScattered clouds.6 mph46%29.95 "Hg22 mi
4:00 PM65 °FPassing clouds.5 mph46%29.95 "Hg19 mi
3:00 PM63 °FPartly sunny.5 mph53%29.96 "Hg28 mi
2:00 PM64 °FScattered clouds.5 mph52%29.96 "Hg25 mi
1:00 PM59 °FPartly sunny.2 mph61%29.97 "Hg34 mi
12:00 PM60 °FScattered clouds.3 mph62%29.97 "Hg31 mi
Weather by CustomWeather, © 2014

See weather overviewHow to use our weather pages